Weather History for Siloam Springs, AR

Change the Weather History Date:

Wednesday, June 18, 2014

  Actual Average Record
Temperature  
Mean Temperature 80 °F -  
Max Temperature 86 °F 80 °F 93 °F (2012)
Min Temperature 73 °F 61 °F 53 °F (1999)
Cooling Degree Days 14    
Growing Degree Days 30 (Base 50)    
Moisture  
Dew Point 65 °F    
Average Humidity 63    
Maximum Humidity 73    
Minimum Humidity 51    
Precipitation  
Precipitation 0.00 in - - ()
Sea Level Pressure  
Sea Level Pressure 30.00 in    
Wind  
Wind Speed 13 mph (South)    
Max Wind Speed 23 mph    
Max Gust Speed 29 mph    
Visibility 10 miles    
Events      
Averages and records for this station are not official NWS values.
T = Trace of Precipitation, MM = Missing Value Source: NWS Daily Summary

Daily Weather History Graph

Daily Weather History Graph

Search for Another Location

Airport:

Trip Planner

Search our weather history database for the weather conditions in past years. The results will help you decide how hot, cold, wet, or windy it might be!

Date:

Astronomy

Jun. 18, 2014 Rise Set
Actual Time 6:00 AM CDT 8:37 PM CDT
Civil Twilight 5:30 AM CDT 9:08 PM CDT
Nautical Twilight 4:52 AM CDT 9:46 PM CDT
Astronomical Twilight 4:10 AM CDT 10:28 PM CDT
Moon 12:16 AM CDT (6/18) 12:14 PM CDT (6/18)
Length of Visible Light 15h 38m
Length of Day
14h 37m
Waning Gibbous, 62% of the Moon is Illuminated
Jun 18
Waning Gibbous
Jun 19
Last Quarter
Jun 27
New
Jul 5
First Quarter
Jul 12
Full

Hourly Weather History & Observations

Time (CDT) Temp. Heat Index Dew Point Humidity Pressure Visibility Wind Dir Wind Speed Gust Speed Precip Events Conditions
12:15 AM 75.2 °F - 64.4 °F 69% 29.99 in 10.0 mi South 11.5 mph 17.3 mph N/A   Clear
12:35 AM 73.4 °F - 64.4 °F 73% 29.99 in 10.0 mi South 11.5 mph 16.1 mph N/A   Clear
12:55 AM 73.4 °F - 64.4 °F 73% 29.99 in 10.0 mi South 12.7 mph - N/A   Clear
1:15 AM 73.4 °F - 64.4 °F 73% 29.99 in 10.0 mi SSE 13.8 mph 20.7 mph N/A   Clear
1:35 AM 73.4 °F - 64.4 °F 73% 29.99 in 10.0 mi South 10.4 mph 18.4 mph N/A   Clear
1:55 AM 73.4 °F - 64.4 °F 73% 30.00 in 10.0 mi South 13.8 mph 19.6 mph N/A   Clear
2:15 AM 73.4 °F - 64.4 °F 73% 30.00 in 10.0 mi South 11.5 mph 17.3 mph N/A   Clear
2:35 AM 73.4 °F - 64.4 °F 73% 30.00 in 10.0 mi South 12.7 mph 17.3 mph N/A   Clear
2:55 AM 73.4 °F - 64.4 °F 73% 30.00 in 10.0 mi South 12.7 mph - N/A   Scattered Clouds
3:15 AM 73.4 °F - 64.4 °F 73% 30.00 in 10.0 mi South 11.5 mph 17.3 mph N/A   Scattered Clouds
3:35 AM 73.4 °F - 64.4 °F 73% 30.00 in 10.0 mi South 10.4 mph - N/A   Mostly Cloudy
3:55 AM 73.4 °F - 64.4 °F 73% 30.00 in 10.0 mi South 10.4 mph - N/A   Mostly Cloudy
4:15 AM 73.4 °F - 64.4 °F 73% 30.00 in 10.0 mi South 9.2 mph - N/A   Scattered Clouds
4:35 AM 73.4 °F - 64.4 °F 73% 30.00 in 10.0 mi South 9.2 mph - N/A   Clear
4:55 AM 73.4 °F - 64.4 °F 73% 30.00 in 10.0 mi South 10.4 mph - N/A   Clear
5:15 AM 73.4 °F - 64.4 °F 73% 30.00 in 10.0 mi South 11.5 mph - N/A   Clear
5:35 AM 73.4 °F - 64.4 °F 73% 30.00 in 10.0 mi South 9.2 mph 16.1 mph N/A   Clear
5:55 AM 73.4 °F - 64.4 °F 73% 30.00 in 10.0 mi South 12.7 mph 17.3 mph N/A   Clear
6:15 AM 73.4 °F - 64.4 °F 73% 30.00 in 10.0 mi South 10.4 mph 16.1 mph N/A   Clear
6:35 AM 73.4 °F - 64.4 °F 73% 30.00 in 10.0 mi South 13.8 mph 18.4 mph N/A   Clear
6:55 AM 73.4 °F - 64.4 °F 73% 29.99 in 10.0 mi South 12.7 mph - N/A   Clear
7:15 AM 73.4 °F - 64.4 °F 73% 30.00 in 10.0 mi South 15.0 mph - N/A   Clear
7:35 AM 75.2 °F - 64.4 °F 69% 30.01 in 10.0 mi South 15.0 mph 21.9 mph N/A   Clear
7:55 AM 75.2 °F - 66.2 °F 73% 30.00 in 10.0 mi South 15.0 mph 18.4 mph N/A   Clear
8:15 AM 75.2 °F - 66.2 °F 73% 30.01 in 10.0 mi South 16.1 mph 21.9 mph N/A   Partly Cloudy
8:55 AM 77.0 °F - 66.2 °F 69% 30.02 in 10.0 mi SSW 18.4 mph 25.3 mph N/A   Mostly Cloudy
9:15 AM 78.8 °F - 66.2 °F 65% 30.02 in 10.0 mi South 21.9 mph 26.5 mph N/A   Mostly Cloudy
9:35 AM 78.8 °F - 66.2 °F 65% 30.01 in 10.0 mi SSW 21.9 mph 26.5 mph N/A   Partly Cloudy
9:55 AM 78.8 °F - 66.2 °F 65% 30.02 in 10.0 mi SSW 19.6 mph 23.0 mph N/A   Partly Cloudy
10:15 AM 80.6 °F 82.7 °F 66.2 °F 61% 30.01 in 10.0 mi SSW 20.7 mph 26.5 mph N/A   Scattered Clouds
10:35 AM 80.6 °F 82.7 °F 66.2 °F 61% 30.01 in 10.0 mi SSW 19.6 mph 25.3 mph N/A   Mostly Cloudy
10:55 AM 80.6 °F 82.7 °F 66.2 °F 61% 30.02 in 10.0 mi SSW 17.3 mph 28.8 mph N/A   Mostly Cloudy
11:15 AM 82.4 °F 84.6 °F 66.2 °F 58% 30.03 in 10.0 mi South 20.7 mph 28.8 mph N/A   Scattered Clouds
11:35 AM 82.4 °F 83.9 °F 64.4 °F 54% 30.03 in 10.0 mi SW 17.3 mph 26.5 mph N/A   Scattered Clouds
11:55 AM 82.4 °F 84.6 °F 66.2 °F 58% 30.02 in 10.0 mi South 23.0 mph 27.6 mph N/A   Scattered Clouds
12:15 PM 82.4 °F 84.6 °F 66.2 °F 58% 30.03 in 10.0 mi SSW 17.3 mph - N/A   Partly Cloudy
12:35 PM 82.4 °F 84.6 °F 66.2 °F 58% 30.03 in 10.0 mi SSW 19.6 mph 28.8 mph N/A   Mostly Cloudy
12:55 PM 84.2 °F 86.6 °F 66.2 °F 55% 30.03 in 10.0 mi South 13.8 mph 23.0 mph N/A   Mostly Cloudy
1:15 PM 84.2 °F 86.6 °F 66.2 °F 55% 30.03 in 10.0 mi South 17.3 mph 26.5 mph N/A   Scattered Clouds
1:35 PM 82.4 °F 84.6 °F 66.2 °F 58% 30.03 in 10.0 mi South 18.4 mph 26.5 mph N/A   Scattered Clouds
1:55 PM 84.2 °F 86.6 °F 66.2 °F 55% 30.02 in 10.0 mi SSW 12.7 mph 23.0 mph N/A   Mostly Cloudy
2:15 PM 84.2 °F 86.6 °F 66.2 °F 55% 30.02 in 10.0 mi South 19.6 mph 24.2 mph N/A   Mostly Cloudy
2:35 PM 84.2 °F 86.6 °F 66.2 °F 55% 30.02 in 10.0 mi South 13.8 mph 19.6 mph N/A   Scattered Clouds
2:55 PM 84.2 °F 86.6 °F 66.2 °F 55% 30.01 in 10.0 mi South 12.7 mph 24.2 mph N/A   Scattered Clouds
3:15 PM 84.2 °F 86.6 °F 66.2 °F 55% 30.01 in 10.0 mi South 15.0 mph 25.3 mph N/A   Scattered Clouds
3:35 PM 84.2 °F 86.6 °F 66.2 °F 55% 30.00 in 10.0 mi South 17.3 mph 25.3 mph N/A   Partly Cloudy
3:55 PM 86.0 °F 88.2 °F 66.2 °F 51% 30.00 in 10.0 mi South 18.4 mph 24.2 mph N/A   Partly Cloudy
4:15 PM 86.0 °F 88.2 °F 66.2 °F 51% 29.99 in 10.0 mi South 18.4 mph 24.2 mph N/A   Clear
4:35 PM 86.0 °F 88.2 °F 66.2 °F 51% 29.99 in 10.0 mi South 15.0 mph 25.3 mph N/A   Clear
4:55 PM 84.2 °F 86.6 °F 66.2 °F 55% 29.99 in 10.0 mi South 16.1 mph 25.3 mph N/A   Clear
5:15 PM 86.0 °F 88.2 °F 66.2 °F 51% 29.99 in 10.0 mi SSW 18.4 mph 25.3 mph N/A   Clear
5:35 PM 86.0 °F 88.2 °F 66.2 °F 51% 29.98 in 10.0 mi South 13.8 mph - N/A   Partly Cloudy
5:55 PM 86.0 °F 88.2 °F 66.2 °F 51% 29.98 in 10.0 mi South 13.8 mph 20.7 mph N/A   Partly Cloudy
6:15 PM 86.0 °F 88.2 °F 66.2 °F 51% 29.98 in 10.0 mi South 11.5 mph - N/A   Clear
6:35 PM 84.2 °F 86.6 °F 66.2 °F 55% 29.98 in 10.0 mi South 13.8 mph - N/A   Clear
6:55 PM 84.2 °F 85.6 °F 64.4 °F 51% 29.98 in 10.0 mi South 11.5 mph - N/A   Clear
7:15 PM 84.2 °F 85.6 °F 64.4 °F 51% 29.98 in 10.0 mi South 11.5 mph 16.1 mph N/A   Clear
7:35 PM 82.4 °F 83.9 °F 64.4 °F 54% 29.98 in 10.0 mi South 13.8 mph 21.9 mph N/A   Clear
7:55 PM 82.4 °F 83.9 °F 64.4 °F 54% 29.98 in 10.0 mi South 9.2 mph - N/A   Clear
8:15 PM 80.6 °F 82.3 °F 64.4 °F 58% 29.98 in 10.0 mi South 8.1 mph - N/A   Clear
8:35 PM 78.8 °F - 64.4 °F 61% 29.98 in 10.0 mi South 6.9 mph - N/A   Clear
8:55 PM 78.8 °F - 64.4 °F 61% 29.98 in 10.0 mi South 8.1 mph - N/A   Clear
9:15 PM 78.8 °F - 64.4 °F 61% 29.98 in 10.0 mi SSE 9.2 mph - N/A   Clear
9:35 PM 78.8 °F - 64.4 °F 61% 30.00 in 10.0 mi South 6.9 mph - N/A   Clear
9:55 PM 77.0 °F - 64.4 °F 65% 30.01 in 10.0 mi South 6.9 mph - N/A   Clear
10:15 PM 77.0 °F - 64.4 °F 65% 30.02 in 10.0 mi South 5.8 mph - N/A   Clear
10:35 PM 77.0 °F - 64.4 °F 65% 30.02 in 10.0 mi South 6.9 mph - N/A   Clear
10:55 PM 77.0 °F - 64.4 °F 65% 30.02 in 10.0 mi South 8.1 mph - N/A   Clear
11:15 PM 75.2 °F - 64.4 °F 69% 30.02 in 10.0 mi South 6.9 mph - N/A   Clear
11:35 PM 75.2 °F - 64.4 °F 69% 30.02 in 10.0 mi SSE 9.2 mph - N/A   Clear
11:55 PM 75.2 °F - 64.4 °F 69% 30.01 in 10.0 mi SSE 6.9 mph - N/A   Clear